Starlink 3754

operational
NORAD ID: 52350 Int'l Des: 2022-045 Owner: SPXS Country: US Constellation: starlink
LEOCIRCULAR

About Starlink 3754

Description loading...

Live Position

Loading 3D Globe...

Upcoming Passes

Altitude History

Altitude vs Time

uPlot chart will show altitude changes over time

Two-Line Element Set

1 52350U 22045V 25298.43405795 .00000557 00000-0 53077-4 0 9994
2 52350 53.2165 86.3036 0001325 91.4912 268.6232 15.08840097195367
Epoch: Oct 25, 2025 • Age: 8 hours

Current Status

Altitude 543.9 km
Velocity 7.60 km/s
Sub-Earth Point 46.22°N, 103.73°W
Launch Date Apr 29, 2022
Age 3.4 years
Type internet

Technical Details

Classification Payload
Mass 297.00 kg
Dry Mass 275.00 kg
Total Mass 297.00 kg
Length 0.20 m
Diameter 2.80 m
Span 9.00 m
Shape Box + pan
Manufacturer SPXS
Bus Type Starlink
Phase Status In Orbit
Owner/State SPXS/US

Large Constellations

Loading constellations...